Regional Weather Roundup
Issued by NWS Charleston, SC

Current Version | Previous Version | Graphics & Text | Print | Product List | Glossary On
Versions: 1 2 3 4 5 6 7 8 9 10 11 12 13 14 15 16 17 18 19 20 21 22 23 24 25 26 27 28 29 30 31 32 33 34 35 36 37 38 39 40 41 42 43 44 45 46 47 48 49 50
000
ASUS42 KCHS 140027
RWRCHS

REGIONAL WEATHER ROUNDUP
NATIONAL WEATHER SERVICE CHARLESTON SC
700 PM EST SAT FEB 13 2016

NOTE: "FAIR" INDICATES FEW OR NO CLOUDS BELOW 12,000 FEET WITH NO
SIGNIFICANT WEATHER AND/OR OBSTRUCTIONS TO VISIBILITY.

NOT ALL STATIONS ARE QUALITY CONTROLLED BY THE NATIONAL
WEATHER SERVICE. USE DATA WITH CAUTION...ESPECIALLY
DEWPOINT OBSERVATIONS.

SCZ027-030-031-034>040-042>050-140100-
...SOUTHEAST SOUTH CAROLINA...

CITY           SKY/WX    TMP DP  RH WIND       PRES   REMARKS
N CHARLESTON   CLEAR     42  17  36 N6        30.32R
6HR MIN TEMP:  42; 6HR MAX TEMP:  51;

WATERFRONT PRK   N/A     46  25  43 N9        30.15R
MOUNT PLEASANT FAIR      39  25  56 N3        30.33R
JOHNS ISLAND   FAIR      41  27  56 CALM      30.32R
PINOPOLIS        N/A     46  18  31 NW9       30.24R
MONCKS CORNER  FAIR      39   7  26 NW3       30.33R
SUMMERVILLE    FAIR      39  23  52 N3        30.34R
BEAUFORT MCAS  CLEAR     43  28  55 CALM      30.31R
6HR MIN TEMP:  42; 6HR MAX TEMP:  53;

BEAUFORT ARPT  FAIR      41  30  65 N3        30.31R
HILTON HEAD IS CLEAR     45  32  61 CALM      30.32R
WALTERBORO     CLEAR     43  21  42 N5        30.34R
ALLENDALE      FAIR      41  27  56 CALM      30.32R

...SOUTHERN MIDLANDS AND PEE DEE...

CITY           SKY/WX    TMP DP  RH WIND       PRES   REMARKS
GEORGETOWN     FAIR      36  19  51 CALM      30.34R
KINGSTREE      FAIR      36  16  44 CALM      30.34R
ORANGEBURG     CLEAR     41   7  24 N5        30.32R
6HR MIN TEMP:  41; 6HR MAX TEMP:  49;

BARNWELL       FAIR      41  28  60 CALM      30.32R
AIKEN          FAIR      39  19  45 CALM      30.34R
MANNING        FAIR      34  21  60 CALM      30.34R
COLUMBIA       CLEAR     42   3  19 N6        30.33R
6HR MIN TEMP:  42; 6HR MAX TEMP:  48;

SUMTER         CLEAR     39  14  36 NW6       30.31R WCI  35
6HR MIN TEMP:  38; 6HR MAX TEMP:  47;

FLORENCE       CLEAR     37  11  34 NE3       30.34R
6HR MIN TEMP:  35; 6HR MAX TEMP:  44;

MYRTLE BEACH   CLEAR     39  10  30 N10       30.35  WCI  32
N MYRTLE BEACH CLEAR     36  15  42 N3        30.34R
6HR MIN TEMP:  36; 6HR MAX TEMP:  45;


$$

GAZ063-065-086>088-099>101-113>116-118-119-134>141-150-140100-
...SOUTHEAST GEORGIA...

CITY           SKY/WX    TMP DP  RH WIND       PRES   REMARKS
SAVANNAH ARPT  CLEAR     44  22  41 N3        30.31R
6HR MIN TEMP:  43; 6HR MAX TEMP:  54;

HUNTER AAF     CLEAR     48  22  35 N5        30.28R
6HR MIN TEMP:  48; 6HR MAX TEMP:  54;

FORT STEWART   CLEAR     44  29  56 CALM      30.29R
6HR MIN TEMP:  44; 6HR MAX TEMP:  55;

STATESBORO     CLEAR     41  29  62 CALM      30.31R
SYLVANIA       CLEAR     40  27  57 CALM      30.32R
CLAXTON        FAIR      41  32  70 CALM      30.31R

...CSRA...CENTRAL AND FAR SOUTHEAST GEORGIA...

CITY           SKY/WX    TMP DP  RH WIND       PRES   REMARKS
THOMSON        CLEAR     38  21  50 CALM      30.38R
AUGUSTA-BUSH   CLEAR     39  14  36 CALM      30.32R
6HR MIN TEMP:  36; 6HR MAX TEMP:  51;

AUGUSTA-DANIEL CLEAR     44  12  27 N5        30.31R
SWAINSBORO     FAIR      43  18  36 NW3       30.32R
VIDALIA        CLEAR     45  18  33 NW7       30.32R
EASTMAN        FAIR      43  13  30 CALM      30.36R
HAZLEHURST     FAIR      47  16  28 NW6       30.31R
ALMA           CLEAR     46  18  32 N3        30.31R
6HR MIN TEMP:  46; 6HR MAX TEMP:  55;

WAYCROSS       CLEAR     49  24  37 N5        30.31R
JESUP          FAIR      46  28  49 CALM      30.31R
BAXLEY         FAIR      46  21  36 NW3       30.31R
BRUNSWICK      CLEAR     43  36  75 CALM      30.32R
SAINT SIMONS   CLEAR     46  35  65 E3        30.31R
6HR MIN TEMP:  45; 6HR MAX TEMP:  56;


$$

SCZ027-028-034-036>038-045-046-048>050-GAZ119-141-140100-
...LAKE AND SUPPLEMENTAL COASTAL OBSERVATIONS...

STATION/POSITION TIME  TEMP    WIND        PRES    WAVE   SWELL
                       AIR SEA DIR/SP/G            HT/PER HT/PER/DIR
                 (UTC) (F)     (DEG/KT/KT) (MB)    (FT/S) (FT/S/D)
WINYAH BAY       2300   42     360/  4     1025.0R
LAKE MURRAY      2300   42     350/  2/  4 1025.7R
ACE BASIN NERRS  2345   41        CALM     1026.0R
FORT PULASKI     0000   45 49              1026.7R
SAPELO ISLAND    0000   43        CALM     1026.0R

$$

ANZ835-935-AMZ111-154-330-350-352-354-370-450-454-472-140100-
...C-MAN AND BUOY OBSERVATIONS...

STATION/POSITION TIME  TEMP    WIND        PRES    WAVE   SWELL
                       AIR SEA DIR/SP/G            HT/PER HT/PER/DIR
                 (UTC) (F)     (DEG/KT/KT) (MB)    (FT/S) (FT/S/D)
BUOY 41004       2350   46 66   10/ 10/ 12 1026.3R   4/ 6   3/ 6
BUOY 41008       2350   47 53   60/  6/  8 1026.6R   2/ 6   2/ 60/ 6
FOLLY BEACH CMAN 0000   45     360/  8/ 10 1026.8R
CAPERS NEARSHORE 2308   44     110/  6/ 10 1025.9R
FRIPP NEARSHORE  2300   49     350/ 12/ 12 1024.7R


STATION/POSITION TIME  TEMP    WIND        PRES    WAVE   SWELL
                       AIR SEA DIR/SP/G            HT/PER HT/PER/DIR
                 (UTC) (F)     (DEG/KT/KT) (MB)    (FT/S) (FT/S/D)
5E ST. MARYS GA  2321      56                N/A     2/ 5
FRYING PAN BUOY  0000   42 62  330/ 16/ 21 1027.0R
BUOY 41025       2350   36 72  320/ 21/ 29 1025.9R   5/ 8   3/ 50/ 8
CAPE LOOKOUT NC  NOT AVBL
BUOY 41002       2350   51 68  340/ 21/ 27   N/A    10/ 8
BUOY 41010       2320   62 72              1022.8R
ST AUGUSTINE FL  0000   52 58   10/ 12/ 14 1026.0R


$$



USA.gov is the U.S. government's official web portal to all federal, state and local government web resources and services.